Regional Weather Roundup
Issued by NWS Memphis, TN

Home | Current Version | Previous Version | Text Only | Print | Product List | Glossary On
Versions: 1 2 3 4 5 6 7 8 9 10 11 12 13 14 15 16 17 18 19 20 21 22 23 24 25 26 27 28 29 30 31 32 33 34 35 36 37 38 39 40 41 42 43 44 45 46 47 48 49 50
000
ASUS44 KMEG 190600
RWRMEG
MEMPHIS CWA HOURLY WEATHER ROUNDUP
NATIONAL WEATHER SERVICE MEMPHIS TN
100 AM CDT SAT AUG 19 2017

...WEST TENNESSEE...

CITY           SKY/WX    TMP DP  RH WIND       PRES   REMARKS
MEMPHIS INTL   CLOUDY    80  71  74 S7        29.96F
6HR MIN TEMP:  77; 6HR MAX TEMP:  87;

NWS MEMPHIS      N/A     74 N/A N/A MISG        N/A
JACKSON        PTCLDY    69  68  96 CALM      29.99R
6HR MIN TEMP:  68; 6HR MAX TEMP:  82;

DYERSBURG      MOCLDY    71  70  96 CALM      29.98F


...EASTERN ARKANSAS...

CITY           SKY/WX    TMP DP  RH WIND       PRES   REMARKS
JONESBORO      PTCLDY    75  73  93 CALM      29.95F
6HR MIN TEMP:  74; 6HR MAX TEMP:  85;

WEST MEMPHIS   LGT RAIN  75  74  96 S3        29.95F
6HR MIN TEMP:  73; 6HR MAX TEMP:  83; 6HR PCP: TRACE;

BATESVILLE     CLEAR     73  70  88 CALM      29.98S
6HR MIN TEMP:  73; 6HR MAX TEMP:  88; 6HR PCP:  0.03;

NEWPORT        PTCLDY    76  73  91 W3        29.97R
6HR MIN TEMP:  75; 6HR MAX TEMP:  86; 6HR PCP: TRACE;

WALNUT RIDGE   CLEAR     73  70  88 SE5       29.96S
6HR MIN TEMP:  73; 6HR MAX TEMP:  82;

BLYTHEVILLE    CLOUDY    74  70  87 S5        29.97S
6HR MIN TEMP:  74; 6HR MAX TEMP:  83;

PINE BLUFF     LGT RAIN  73  70  90 N7        30.03R
6HR MIN TEMP:  73; 6HR MAX TEMP:  89; 6HR PCP: TRACE;

MONTICELLO     CLOUDY    75  72  90 CALM      30.00R
6HR MIN TEMP:  74; 6HR MAX TEMP:  88; 6HR PCP:  0.14;



...NORTH MISSISSIPPI...

CITY           SKY/WX    TMP DP  RH WIND       PRES   REMARKS
TUPELO         CLEAR     73  70  90 CALM      29.98S
6HR MIN TEMP:  73; 6HR MAX TEMP:  89;

TUNICA           N/A     73  72  94 CALM      29.98F
CLARKSDALE       N/A     77  77 100 S5        29.99R
GREENWOOD      CLEAR     78  76  93 S3        29.98S
6HR MIN TEMP:  77; 6HR MAX TEMP:  86;

COLUMBUS       PTCLDY    73  73 100 CALM      29.97S
6HR MIN TEMP:  72; 6HR MAX TEMP:  87;

STARKVILLE     PTCLDY    73  72  94 CALM      30.00S FOG
GOLDEN TRIANGL CLEAR     75  68  78 SW5         N/A
6HR MIN TEMP:  73; 6HR MAX TEMP:  91;



...SOUTHEAST MISSOURI...

CITY           SKY/WX    TMP DP  RH WIND       PRES   REMARKS
KENNETT        CLOUDY    73  72  94 CALM      29.95S
MALDEN         CLEAR     73  68  83 CALM      29.98R
WEST PLAINS    CLEAR     70  68  93 CALM      30.01R
6HR MIN TEMP:  70; 6HR MAX TEMP:  81; 6HR PCP: TRACE;

POPLAR BLUFF   CLEAR     70  69  97 N3        29.97R
6HR MIN TEMP:  70; 6HR MAX TEMP:  81;

CAPE GIRARDEAU PTCLDY    70  67  90 CALM      29.96S
6HR MIN TEMP:  70; 6HR MAX TEMP:  81;



...NORTHWEST ALABAMA...

CITY           SKY/WX    TMP DP  RH WIND       PRES   REMARKS
MUSCLE SHOALS  CLEAR     71  66  84 CALM      29.99F
6HR MIN TEMP:  69; 6HR MAX TEMP:  84;



...MIDDLE TENNESSEE...

CITY           SKY/WX    TMP DP  RH WIND       PRES   REMARKS
NASHVILLE      CLEAR     70  67  90 S3        29.99F
6HR MIN TEMP:  70; 6HR MAX TEMP:  84;

CLARKSVILLE    MOCLDY    72  67  84 SW3       29.98S
6HR MIN TEMP:  68; 6HR MAX TEMP:  82;



...WESTERN KENTUCKY...

CITY           SKY/WX    TMP DP  RH WIND       PRES   REMARKS
PADUCAH        CLOUDY    75  67  76 SW3       29.96F
6HR MIN TEMP:  73; 6HR MAX TEMP:  82;

FORT CAMPBELL  CLOUDY    72  67  86 SW6       29.97F
6HR MIN TEMP:  72; 6HR MAX TEMP:  82;



...CENTRAL ARKANSAS...

CITY           SKY/WX    TMP DP  RH WIND       PRES   REMARKS
LITTLE ROCK    CLOUDY    72  70  93 S5        30.01S
6HR MIN TEMP:  71; 6HR MAX TEMP:  88; 6HR PCP:  0.75;



SKY/WX REPORTED AS FAIR MEANS FEW OR NO CLOUDS BELOW
12 THOUSAND FEET.




USA.gov is the U.S. government's official web portal to all federal, state and local government web resources and services.